Back to catalog

STARLINK-36984

AliveCommunicationsVLEO
NORAD 68168·PAYLOAD·🇺🇸 United States

Launched Mar 14, 2026 from Vandenberg Space Force Base

Loading…

Next Passes (next 24 hours)

TLE

FreshSource: CelesTrak SupGP

Epoch: Sep 14, 2026, 15:49 UTC

1 68168C 26050B   26257.65951389 -.00023089  00000+0 -68110-3 0  2579
2 68168  53.1575 104.8823 0001216 103.3025 255.8023 15.34450831    17

Track STARLINK-36984 in real time with AllMySat

Download on the App Store